TimeHST,TemperatureF,Dew PointF,Humidity,Sea Level PressureIn,VisibilityMPH,Wind Direction,Wind SpeedMPH,Gust SpeedMPH,PrecipitationIn,Events,Conditions,WindDirDegrees,DateUTC
12:53 AM,71.1,66.9,87,30.07,10.0,West,8.1,-,0.04,,Overcast,260,2013-07-12 10:53:00
1:26 AM,71.1,66.0,84,30.07,10.0,West,5.8,-,N/A,,Mostly Cloudy,260,2013-07-12 11:26:00
1:41 AM,71.1,66.0,84,30.07,10.0,Calm,Calm,-,N/A,,Overcast,0,2013-07-12 11:41:00
1:53 AM,71.1,66.9,87,30.06,10.0,Calm,Calm,-,N/A,,Overcast,0,2013-07-12 11:53:00
2:38 AM,70.0,66.0,87,30.06,9.0,SSW,4.6,-,0.06,Rain,Light Rain,210,2013-07-12 12:38:00
2:46 AM,70.0,66.0,87,30.05,8.0,WSW,5.8,-,0.06,Rain,Light Rain,240,2013-07-12 12:46:00
2:53 AM,70.0,66.0,87,30.05,9.0,West,6.9,-,0.06,Rain,Light Rain,260,2013-07-12 12:53:00
3:34 AM,70.0,64.9,84,30.05,6.0,NW,3.5,-,0.01,Rain,Rain,310,2013-07-12 13:34:00
3:53 AM,70.0,64.9,84,30.04,10.0,WSW,4.6,-,0.05,Rain,Light Rain,240,2013-07-12 13:53:00
4:00 AM,70.0,66.0,87,30.04,10.0,West,5.8,-,0.00,,Overcast,260,2013-07-12 14:00:00
4:53 AM,70.0,66.9,90,30.04,8.0,WNW,8.1,-,0.01,Rain,Light Rain,290,2013-07-12 14:53:00
5:53 AM,70.0,66.0,87,30.05,10.0,WSW,6.9,-,0.01,,Mostly Cloudy,250,2013-07-12 15:53:00
6:53 AM,70.0,66.0,87,30.06,10.0,WSW,6.9,-,N/A,,Mostly Cloudy,240,2013-07-12 16:53:00
7:53 AM,75.9,68.0,76,30.07,10.0,Calm,Calm,-,N/A,,Mostly Cloudy,0,2013-07-12 17:53:00
8:53 AM,79.0,66.9,66,30.07,10.0,North,6.9,-,N/A,,Mostly Cloudy,360,2013-07-12 18:53:00
9:53 AM,81.0,66.9,62,30.07,10.0,NNE,10.4,-,N/A,,Partly Cloudy,30,2013-07-12 19:53:00
10:53 AM,82.0,66.0,58,30.06,10.0,NE,9.2,-,N/A,,Scattered Clouds,50,2013-07-12 20:53:00
11:53 AM,82.0,66.0,58,30.04,10.0,East,9.2,-,N/A,,Partly Cloudy,90,2013-07-12 21:53:00
12:53 PM,82.9,66.0,56,30.03,10.0,NE,11.5,-,N/A,,Scattered Clouds,50,2013-07-12 22:53:00
1:53 PM,82.0,66.0,58,30.02,10.0,ENE,11.5,-,N/A,,Scattered Clouds,60,2013-07-12 23:53:00
2:53 PM,84.0,66.0,55,30.02,10.0,NE,12.7,18.4,N/A,,Mostly Cloudy,40,2013-07-13 00:53:00
3:53 PM,82.9,66.0,56,30.01,10.0,ENE,12.7,-,N/A,,Mostly Cloudy,60,2013-07-13 01:53:00
4:53 PM,79.0,66.0,64,30.01,10.0,ENE,11.5,-,N/A,,Mostly Cloudy,70,2013-07-13 02:53:00
5:53 PM,78.1,64.9,64,30.01,10.0,ESE,6.9,-,N/A,,Mostly Cloudy,110,2013-07-13 03:53:00
6:53 PM,77.0,64.9,66,30.03,10.0,ESE,4.6,-,N/A,,Overcast,110,2013-07-13 04:53:00
7:53 PM,75.9,66.0,71,30.04,10.0,Calm,Calm,-,N/A,,Overcast,0,2013-07-13 05:53:00
8:53 PM,73.9,66.0,76,30.05,10.0,WSW,4.6,-,N/A,,Overcast,250,2013-07-13 06:53:00
9:45 PM,73.0,66.0,79,30.06,10.0,SW,3.5,-,N/A,,Mostly Cloudy,230,2013-07-13 07:45:00
9:53 PM,73.0,66.0,79,30.06,10.0,Calm,Calm,-,N/A,,Mostly Cloudy,0,2013-07-13 07:53:00
10:01 PM,73.0,66.0,79,30.06,10.0,SW,3.5,-,N/A,,Scattered Clouds,230,2013-07-13 08:01:00
10:53 PM,73.0,66.0,79,30.06,10.0,SW,4.6,-,N/A,,Mostly Cloudy,220,2013-07-13 08:53:00
11:53 PM,73.0,66.0,79,30.04,10.0,SW,4.6,-,N/A,,Overcast,230,2013-07-13 09:53:00